Location: Bush Observatory
(40.2653°N, 94.3194°W)
Time: 02:38:47
(UTC-05:00)

Vanguard 1 - Visible Passes

Search period start: 18 September 2014 00:00
Search period end: 28 September 2014 00:00
Orbit: 650 x 3838 km, 34.3° (Epoch: 07 September)

Date Brightness Start Highest point End Pass type
(mag) Time Alt. Az. Time Alt. Az. Time Alt. Az.
18 Sep 13.1 00:45:42 10° W 01:01:23 43° WSW 01:01:23 43° WSW visible
18 Sep 12.9 20:16:39 10° WSW 20:36:50 73° S 20:55:41 20° E visible
18 Sep 12.6 22:41:01 10° W 23:04:02 69° SSW 23:08:23 61° SSE visible
19 Sep 13.3 01:08:13 10° W 01:21:05 34° WSW 01:21:05 34° WSW visible
19 Sep 12.9 20:38:23 10° WSW 20:59:01 74° S 21:15:23 27° E visible
19 Sep 12.6 23:03:08 10° W 23:25:59 64° SSW 23:28:05 62° S visible
20 Sep 13.5 01:31:01 10° W 01:40:47 26° W 01:40:47 26° W visible
20 Sep 12.9 21:00:12 10° W 21:21:13 74° S 21:35:06 33° ESE visible
20 Sep 12.8 23:25:18 10° W 23:47:46 57° SSW 23:47:48 57° SSW visible
21 Sep 13.8 01:54:16 10° W 02:00:31 19° W 02:00:31 19° W visible
21 Sep 13.0 18:59:22 10° WSW 19:16:28 69° SSE 19:39:58 10° E visible
21 Sep 12.9 21:22:06 10° W 21:43:23 72° S 21:54:51 40° ESE visible
21 Sep 12.9 23:47:33 10° W 00:07:33 50° SW 00:07:33 50° SW visible
22 Sep 14.0 02:18:24 10° W 02:20:16 12° W 02:20:16 12° W visible
22 Sep 12.9 19:20:54 10° WSW 19:38:30 72° S 20:01:55 11° E visible
22 Sep 12.8 21:44:01 10° W 22:05:30 68° SSW 22:14:37 47° SE visible
23 Sep 13.2 00:09:58 10° W 00:27:20 41° SW 00:27:20 41° SW visible
23 Sep 12.9 19:42:32 10° WSW 20:00:36 74° S 20:21:44 16° E visible
23 Sep 12.8 22:06:00 10° W 22:27:29 63° SSW 22:34:26 51° SSE visible
24 Sep 13.4 00:32:40 10° W 00:47:09 32° WSW 00:47:09 32° WSW visible
24 Sep 12.9 20:04:15 10° W 20:22:45 74° S 20:41:35 21° ESE visible
24 Sep 12.8 22:28:02 10° W 22:49:20 57° SSW 22:54:18 51° S visible
25 Sep 13.6 00:55:50 10° W 01:07:01 25° WSW 01:07:01 25° WSW visible
25 Sep 12.9 20:26:00 10° W 20:44:54 71° S 21:01:30 26° ESE visible
25 Sep 13.0 22:50:11 10° W 23:11:02 50° SSW 23:14:13 48° SSW visible
26 Sep 13.9 01:19:50 10° W 01:26:56 17° WSW 01:26:56 17° WSW visible
26 Sep 12.9 20:47:49 10° W 21:06:59 67° SSW 21:21:27 31° SE visible
26 Sep 13.1 23:12:29 10° W 23:32:34 42° SW 23:34:11 42° SSW visible
27 Sep 14.1 01:45:47 10° W 01:46:55 11° WSW 01:46:55 11° WSW visible
27 Sep 13.0 21:09:40 10° W 21:28:59 62° SSW 21:41:29 35° SE visible
27 Sep 13.3 23:35:05 10° W 23:53:57 35° SW 23:54:14 35° SW visible
